User: anonymous   Login
Location: Unspecified
(0.0000°N, 0.0000°E)
Time: 00:10:52
(UTC+00:00)
Language:

STARLINK-32593 - Orbit

View from above orbital plane
View from above orbital plane
View from above satellite
View from above satellite

Ground track
Ground track

The orbit is defined by the following mean orbital elements,

1 61974U          26145.37785602 +.00000000 +00000-0 +31103-3 0 00007
2 61974  42.9990 107.1392 0001225 266.0124  94.0588 15.27587873    03
Epoch (UTC): 25 May 2026 09:04:06
Eccentricity: 0.0001225
inclination: 42.9990°
perigee height: 482 km
apogee height: 484 km
right ascension of ascending node: 107.1392°
argument of perigee: 266.0124°
revolutions per day: 15.27587873
mean anomaly at epoch: 94.0588°

The dashed part of the orbit path shows where the satellite is in the earth's shadow,  

DLR